E0445 Weather Reports


Display with metric or nautical units.
time (UTC)temp
F
wind
direction
speed
MPH
gust
MPH
rain 1hr
in
rain 24hr
in
rain mn
in
humidity
%
barometer
mb
20260831112022 62 0 0.0 0.0 0.01 0.01 0.01 98 1021.6
20260831111537 62 0 0.0 0.0 0.01 0.01 0.01 98 1021.5
20260831111021 62 0 0.0 0.0 0.01 0.01 0.01 98 1021.5
20260831110520 62 0 0.0 0.0 0.01 0.01 0.01 98 1021.2
20260831110037 62 0 0.0 0.0 0.01 0.01 0.01 98 1021.1
20260831105520 62 0 0.0 0.0 0.01 0.01 0.01 98 1020.9
20260831105018 62 0 0.0 0.0 0.01 0.01 0.01 98 1020.9
20260831104549 62 0 0.0 0.0 0.01 0.01 0.01 98 1020.7
20260831104016 62 0 0.0 0.0 0.00 0.00 0.00 98 1020.7
20260831103516 62 0 0.0 0.0 0.00 0.00 0.00 98 1020.8
20260831103036 62 0 0.0 0.0 0.00 0.00 0.00 98 1020.7
20260831102519 62 0 0.0 2.0 0.00 0.00 0.00 98 1020.6
20260831102020 62 0 0.0 3.0 0.00 0.00 0.00 98 1020.7
20260831101544 62 0 0.0 3.0 0.00 0.00 0.00 98 1020.7
20260831101019 62 5 1.0 2.0 0.00 0.00 0.00 98 1020.8
20260831100520 62 5 1.0 2.0 0.00 0.00 0.00 98 1020.8
20260831100035 62 5 0.0 2.0 0.00 0.00 0.00 98 1020.8
20260831095520 62 0 0.0 0.0 0.00 0.00 0.00 98 1020.8
20260831095020 62 0 0.0 0.0 0.00 0.00 0.00 98 1020.9
20260831094541 62 0 0.0 0.0 0.00 0.00 0.00 98 1020.9
20260831094017 62 0 0.0 0.0 0.00 0.00 0.00 98 1020.9
20260831093518 62 0 0.0 0.0 0.00 0.00 0.00 98 1020.9
20260831093057 62 0 0.0 0.0 0.00 0.00 0.00 98 1020.9
20260831092519 62 0 0.0 0.0 0.00 0.00 0.00 98 1020.9
20260831092017 62 0 0.0 0.0 0.00 0.00 0.00 98 1020.9
20260831091547 62 0 0.0 0.0 0.00 0.00 0.00 98 1021.0
20260831091018 62 0 0.0 0.0 0.00 0.00 0.00 98 1020.8
20260831090518 62 0 0.0 0.0 0.00 0.00 0.00 98 1020.7
20260831090034 62 0 0.0 0.0 0.00 0.00 0.00 98 1020.7
20260831085518 62 0 0.0 0.0 0.00 0.00 0.00 98 1020.6
20260831085022 62 0 0.0 0.0 0.00 0.00 0.00 98 1020.6
20260831084620 62 0 0.0 0.0 0.00 0.00 0.00 98 1020.6
20260831084018 62 0 0.0 0.0 0.00 0.00 0.00 98 1020.6
20260831083520 62 0 0.0 0.0 0.00 0.00 0.00 98 1020.5
20260831083045 62 0 0.0 0.0 0.00 0.00 0.00 98 1020.4
20260831082519 62 0 0.0 0.0 0.00 0.00 0.00 98 1020.5
20260831082021 62 0 0.0 0.0 0.00 0.00 0.00 98 1020.7
20260831081536 62 0 0.0 0.0 0.00 0.00 0.00 98 1020.7
20260831081019 62 0 0.0 0.0 0.00 0.00 0.00 98 1020.6
20260831080516 62 0 0.0 0.0 0.00 0.00 0.00 98 1020.7
20260831080050 62 0 0.0 0.0 0.00 0.00 0.00 98 1020.6
20260831075518 62 0 0.0 0.0 0.00 0.00 0.00 98 1020.6
20260831075021 62 0 0.0 0.0 0.00 0.00 0.00 98 1020.5
20260831074547 62 0 0.0 0.0 0.00 0.00 0.00 98 1020.5
20260831074018 62 0 0.0 0.0 0.00 0.00 0.00 98 1020.4
20260831073519 62 0 0.0 0.0 0.00 0.00 0.00 98 1020.4
20260831073043 62 0 0.0 0.0 0.00 0.00 0.00 98 1020.4
20260831072521 62 0 0.0 0.0 0.00 0.00 0.00 98 1020.4
20260831072016 62 0 0.0 0.0 0.00 0.00 0.00 98 1020.4
20260831071543 63 0 0.0 0.0 0.00 0.00 0.00 98 1020.4
20260831071021 63 0 0.0 0.0 0.00 0.00 0.00 98 1020.4
20260831070519 63 0 0.0 0.0 0.00 0.00 0.00 98 1020.4
20260831070038 63 0 0.0 0.0 0.00 0.00 0.00 98 1020.5
20260831065519 63 0 0.0 0.0 0.00 0.00 0.00 98 1020.6
20260831065019 63 0 0.0 0.0 0.00 0.00 0.00 98 1020.6
20260831064546 63 0 0.0 0.0 0.00 0.00 0.00 98 1020.6
20260831064020 63 0 0.0 0.0 0.00 0.00 0.00 98 1020.7
20260831063519 63 0 0.0 0.0 0.00 0.00 0.00 98 1020.8
20260831063043 63 0 0.0 0.0 0.00 0.00 0.00 98 1020.7
20260831062519 63 0 0.0 0.0 0.00 0.00 0.00 98 1020.7
20260831062019 63 0 0.0 0.0 0.00 0.00 0.00 98 1020.7
20260831061539 63 0 0.0 0.0 0.00 0.00 0.00 98 1020.9
20260831061018 63 0 0.0 0.0 0.00 0.00 0.00 98 1020.9
20260831060520 63 0 0.0 0.0 0.00 0.00 0.00 98 1021.0
20260831060037 63 0 0.0 0.0 0.00 0.00 0.00 98 1021.0
20260831055518 63 0 0.0 0.0 0.00 0.00 0.00 98 1021.0
20260831055018 63 0 0.0 0.0 0.00 0.00 0.00 98 1021.0
20260831054538 63 0 0.0 0.0 0.00 0.00 0.00 98 1021.1
20260831054027 63 0 0.0 0.0 0.00 0.00 0.00 98 1021.1
20260831053519 63 0 0.0 0.0 0.00 0.00 0.00 98 1021.1
20260831053050 63 0 0.0 0.0 0.00 0.00 0.00 98 1021.2
20260831052517 63 0 0.0 0.0 0.00 0.00 0.00 98 1021.3
20260831052016 63 0 0.0 1.0 0.00 0.00 0.00 98 1021.3
20260831051540 64 0 0.0 1.0 0.00 0.00 0.00 98 1021.4
20260831051018 64 0 0.0 3.0 0.00 0.00 0.00 98 1021.4
20260831050526 64 0 0.0 3.0 0.00 0.00 0.00 98 1021.3
20260831050038 64 0 0.0 0.0 0.00 0.00 0.00 98 1021.3
20260831045523 64 0 0.0 0.0 0.00 0.00 0.00 98 1021.4
20260831045020 64 0 0.0 0.0 0.00 0.00 0.00 98 1021.2
20260831044538 64 0 0.0 0.0 0.00 0.00 0.00 98 1021.3
20260831044019 64 0 0.0 0.0 0.00 0.00 0.00 98 1021.4
20260831043521 64 0 0.0 0.0 0.00 0.00 0.00 98 1021.3
20260831043041 65 0 0.0 0.0 0.00 0.00 0.00 98 1021.2
20260831042518 65 0 0.0 0.0 0.00 0.00 0.00 98 1021.1
20260831042018 65 0 0.0 0.0 0.00 0.00 0.00 98 1021.1
20260831041538 65 0 0.0 0.0 0.00 0.00 0.00 98 1021.1
20260831041017 65 0 0.0 0.0 0.00 0.00 0.00 98 1021.2
20260831040521 65 0 0.0 0.0 0.00 0.00 0.00 98 1021.2
20260831040041 65 0 0.0 0.0 0.00 0.00 0.00 98 1021.0
20260831035518 65 0 0.0 0.0 0.00 0.00 0.00 98 1021.1
20260831035018 65 0 0.0 0.0 0.00 0.00 0.00 98 1021.2
20260831034539 65 0 0.0 0.0 0.00 0.00 0.00 98 1021.3
20260831034016 65 0 0.0 0.0 0.00 0.00 0.00 98 1021.3
20260831033518 65 0 0.0 0.0 0.00 0.00 0.00 98 1021.2
20260831033046 65 0 0.0 0.0 0.00 0.00 0.00 98 1021.1
20260831032520 65 0 0.0 0.0 0.00 0.00 0.00 98 1021.1
20260831032019 65 0 0.0 0.0 0.00 0.00 0.00 98 1021.1
20260831031534 65 0 0.0 0.0 0.00 0.00 0.00 98 1021.1
20260831031019 65 0 0.0 0.0 0.00 0.00 0.00 98 1021.1
20260831030518 65 0 0.0 0.0 0.00 0.00 0.00 98 1021.2
20260831030043 65 0 0.0 0.0 0.00 0.00 0.00 98 1021.2
20260831025518 65 0 0.0 0.0 0.00 0.00 0.00 98 1021.3
20260831025018 65 0 0.0 0.0 0.00 0.00 0.00 98 1021.3
20260831024544 65 0 0.0 0.0 0.00 0.00 0.00 98 1021.2
20260831024021 65 0 0.0 0.0 0.00 0.00 0.00 98 1021.3
20260831023522 65 0 0.0 0.0 0.00 0.00 0.00 98 1021.3
20260831023036 65 0 0.0 0.0 0.00 0.00 0.00 98 1021.3
20260831022520 65 0 0.0 0.0 0.00 0.00 0.00 98 1021.4
20260831022020 65 0 0.0 0.0 0.00 0.00 0.00 98 1021.5
20260831021535 65 0 0.0 0.0 0.00 0.00 0.00 98 1021.5
20260831021019 65 0 0.0 0.0 0.00 0.00 0.00 98 1021.4
20260831020518 65 0 0.0 0.0 0.00 0.00 0.00 97 1021.3
20260831020040 65 0 0.0 0.0 0.00 0.00 0.00 97 1021.3
20260831015520 65 0 0.0 0.0 0.00 0.00 0.00 97 1021.4
20260831015020 65 0 0.0 0.0 0.00 0.00 0.00 97 1021.3
20260831014535 65 0 0.0 0.0 0.00 0.00 0.00 97 1021.2
20260831014020 65 0 0.0 0.0 0.00 0.00 0.00 97 1021.2
20260831013520 65 0 0.0 0.0 0.00 0.00 0.00 97 1021.2
20260831013036 65 0 0.0 0.0 0.00 0.00 0.00 97 1021.1
20260831012516 65 0 0.0 0.0 0.00 0.00 0.00 97 1021.0
20260831012021 65 0 0.0 0.0 0.00 0.00 0.00 97 1021.1
20260831011539 65 0 0.0 0.0 0.00 0.00 0.00 97 1020.9
20260831011017 66 0 0.0 0.0 0.00 0.00 0.00 97 1020.9
20260831010520 65 0 0.0 0.0 0.00 0.00 0.00 97 1020.8
20260831010036 66 0 0.0 0.0 0.00 0.00 0.00 97 1020.8
20260831005516 66 0 0.0 0.0 0.00 0.00 0.00 97 1020.8
20260831005019 66 0 0.0 0.0 0.00 0.00 0.00 97 1020.8
20260831004540 66 0 0.0 0.0 0.00 0.00 0.00 97 1020.8
20260831004019 66 0 0.0 0.0 0.00 0.00 0.00 97 1020.7
20260831003519 66 0 0.0 0.0 0.00 0.00 0.00 97 1020.6
20260831003035 66 0 0.0 0.0 0.00 0.00 0.00 97 1020.4
20260831002516 66 0 0.0 0.0 0.00 0.00 0.00 97 1020.4
20260831002020 66 0 0.0 0.0 0.00 0.00 0.00 97 1020.4
20260831001537 66 0 0.0 0.0 0.00 0.00 0.00 97 1020.4
20260831001020 66 0 0.0 0.0 0.00 0.00 0.00 97 1020.2
20260831000519 66 0 0.0 0.0 0.00 0.00 0.00 97 1020.2
20260831000038 66 0 0.0 0.0 0.00 0.00 0.00 96 1020.1
20260830235520 66 0 0.0 0.0 0.00 0.00 0.00 96 1020.2
20260830235021 66 0 0.0 0.0 0.00 0.00 0.00 96 1020.0
20260830234537 66 0 0.0 1.0 0.00 0.00 0.00 96 1020.1
20260830234021 66 0 0.0 1.0 0.00 0.00 0.00 96 1019.9
20260830233517 66 0 0.0 1.0 0.00 0.00 0.00 96 1020.0
20260830233035 66 0 0.0 0.0 0.00 0.00 0.00 96 1020.0
20260830232518 66 0 0.0 1.0 0.00 0.00 0.00 96 1020.1
20260830232018 66 0 0.0 1.0 0.00 0.00 0.00 96 1020.0
20260830231536 66 0 0.0 1.0 0.00 0.00 0.00 96 1020.0
20260830231022 67 0 0.0 0.0 0.00 0.00 0.00 96 1020.0
20260830230518 66 0 0.0 0.0 0.00 0.00 0.00 96 1020.1
20260830230037 67 0 0.0 1.0 0.00 0.00 0.00 96 1020.1
20260830225521 67 0 0.0 1.0 0.00 0.00 0.00 96 1020.1
20260830225020 67 0 0.0 0.0 0.00 0.00 0.00 95 1020.2
20260830224534 67 0 0.0 0.0 0.00 0.00 0.00 95 1020.0
20260830224018 67 0 0.0 1.0 0.00 0.00 0.00 95 1020.0
20260830223516 67 0 0.0 1.0 0.00 0.00 0.00 95 1020.1
20260830223037 67 0 0.0 0.0 0.00 0.00 0.00 94 1020.2
20260830222519 67 0 0.0 0.0 0.00 0.00 0.00 94 1020.1
20260830222018 67 0 0.0 0.0 0.00 0.00 0.00 94 1020.1
20260830221541 67 0 0.0 1.0 0.00 0.00 0.00 93 1020.1
20260830221026 67 0 0.0 2.0 0.00 0.00 0.00 93 1020.1
20260830220517 67 0 0.0 2.0 0.00 0.00 0.00 93 1020.2
20260830220040 67 0 0.0 3.0 0.00 0.00 0.00 92 1020.2
20260830215520 67 0 0.0 4.0 0.00 0.00 0.00 92 1020.3
20260830215022 67 0 0.0 5.0 0.00 0.00 0.00 92 1020.3
20260830214538 68 316 1.0 5.0 0.00 0.00 0.00 91 1020.3
20260830214025 68 311 2.0 7.0 0.00 0.00 0.00 90 1020.4
20260830213516 68 337 1.0 8.0 0.00 0.00 0.00 88 1020.4
20260830213037 70 276 3.0 15.0 0.00 0.00 0.00 85 1020.4
20260830212518 71 277 6.0 15.0 0.00 0.00 0.00 82 1020.3
20260830212021 73 298 6.0 12.0 0.00 0.00 0.00 77 1020.2
20260830211538 73 284 4.0 12.0 0.00 0.00 0.00 75 1019.8
20260830211016 73 303 2.0 8.0 0.00 0.00 0.00 76 1019.6
20260830210519 73 317 2.0 5.0 0.00 0.00 0.00 78 1019.5
20260830210037 73 291 1.0 3.0 0.00 0.00 0.00 76 1019.5
20260830205520 73 291 1.0 3.0 0.00 0.00 0.00 77 1019.4
20260830205020 73 0 0.0 3.0 0.00 0.00 0.00 78 1019.4
20260830204537 73 206 0.0 3.0 0.00 0.00 0.00 77 1019.3
20260830204016 74 0 0.0 1.0 0.00 0.00 0.00 80 1019.4
20260830203519 74 0 0.0 2.0 0.00 0.00 0.00 82 1019.4
20260830203040 74 0 0.0 3.0 0.00 0.00 0.00 78 1019.4
20260830202517 74 0 0.0 3.0 0.00 0.00 0.00 76 1019.4
20260830202020 74 221 0.0 4.0 0.00 0.00 0.00 75 1019.3
20260830201537 74 188 1.0 4.0 0.00 0.00 0.00 75 1019.3
20260830201018 75 270 0.0 7.0 0.00 0.00 0.00 74 1019.3
20260830200519 75 273 2.0 7.0 0.00 0.00 0.00 72 1019.3
20260830200036 75 208 4.0 7.0 0.00 0.00 0.00 73 1019.3
20260830195520 75 267 2.0 7.0 0.00 0.00 0.00 73 1019.3
20260830195017 75 205 2.0 6.0 0.00 0.00 0.00 76 1019.3
20260830194548 75 217 3.0 6.0 0.00 0.00 0.00 74 1019.4
20260830194018 75 217 1.0 7.0 0.00 0.00 0.00 75 1019.3
20260830193519 75 229 1.0 7.0 0.00 0.00 0.00 75 1019.5
20260830193037 75 272 2.0 9.0 0.00 0.00 0.00 74 1019.6
20260830192516 75 200 2.0 9.0 0.00 0.00 0.00 73 1019.5
20260830192020 75 185 4.0 12.0 0.00 0.00 0.00 71 1019.7
20260830191537 76 194 2.0 12.0 0.00 0.00 0.00 72 1019.7
20260830191020 76 219 3.0 10.0 0.00 0.00 0.00 73 1019.7
20260830190518 76 244 4.0 10.0 0.00 0.00 0.00 71 1019.7
20260830190034 77 195 5.0 9.0 0.00 0.00 0.00 69 1019.7
20260830185517 77 269 2.0 9.0 0.00 0.00 0.00 72 1019.9
20260830185019 76 212 2.0 9.0 0.00 0.00 0.00 70 1020.0
20260830184536 76 202 3.0 9.0 0.00 0.00 0.00 73 1020.0
20260830184017 76 194 2.0 8.0 0.00 0.00 0.00 73 1020.0
20260830183518 76 277 4.0 8.0 0.00 0.00 0.00 71 1019.9
20260830183042 75 225 1.0 7.0 0.00 0.00 0.00 72 1020.0
20260830182518 75 250 3.0 9.0 0.00 0.00 0.00 73 1020.2
20260830182020 75 264 4.0 9.0 0.00 0.00 0.00 73 1020.2
20260830181537 75 256 2.0 9.0 0.00 0.00 0.00 76 1020.1
20260830181017 75 185 3.0 9.0 0.00 0.00 0.00 77 1020.2
20260830180516 75 185 4.0 9.0 0.00 0.00 0.00 77 1020.2
20260830180037 75 277 1.0 9.0 0.00 0.00 0.00 77 1020.2
20260830175518 75 190 2.0 9.0 0.00 0.00 0.00 77 1020.3
20260830175018 75 176 3.0 10.0 0.00 0.00 0.00 76 1020.2
20260830174535 76 173 4.0 10.0 0.00 0.00 0.00 77 1020.3
20260830174017 76 232 4.0 8.0 0.00 0.00 0.00 77 1020.2
20260830173517 77 240 3.0 8.0 0.00 0.00 0.00 74 1020.2
20260830173036 75 155 3.0 8.0 0.00 0.00 0.00 76 1020.1
20260830172517 75 217 5.0 8.0 0.00 0.00 0.00 75 1020.2
20260830172018 75 172 3.0 8.0 0.00 0.00 0.00 77 1020.3
20260830171537 74 192 3.0 7.0 0.00 0.00 0.00 77 1020.4
20260830171020 75 198 1.0 8.0 0.00 0.00 0.00 79 1020.3
20260830170521 74 184 1.0 8.0 0.00 0.00 0.00 77 1020.4
20260830170039 74 185 3.0 8.0 0.00 0.00 0.00 78 1020.5
20260830165520 74 298 3.0 8.0 0.00 0.00 0.00 77 1020.5
20260830165018 75 288 4.0 8.0 0.00 0.00 0.00 76 1020.6
20260830164535 75 211 1.0 10.0 0.00 0.00 0.00 79 1020.6
20260830164021 74 319 2.0 10.0 0.00 0.00 0.00 79 1020.7
20260830163519 74 175 2.0 9.0 0.00 0.00 0.00 78 1020.8
20260830163044 73 321 3.0 10.0 0.00 0.00 0.00 78 1020.8
20260830162518 73 190 5.0 10.0 0.00 0.00 0.00 81 1020.9
20260830162024 72 185 2.0 6.0 0.00 0.00 0.00 78 1020.8
20260830161534 72 190 3.0 6.0 0.00 0.00 0.00 79 1020.9
20260830161020 72 0 1.0 6.0 0.00 0.00 0.00 80 1020.9
20260830160519 72 215 2.0 8.0 0.00 0.00 0.00 80 1020.9
20260830160053 72 262 2.0 8.0 0.00 0.00 0.00 79 1021.1
20260830155517 72 188 4.0 8.0 0.00 0.00 0.00 80 1021.3
20260830155016 72 234 3.0 7.0 0.00 0.00 0.00 80 1021.4
20260830154535 72 275 2.0 7.0 0.00 0.00 0.00 81 1021.4
20260830154023 71 279 2.0 7.0 0.00 0.00 0.00 80 1021.5
20260830153519 71 223 3.0 7.0 0.00 0.00 0.00 79 1021.6
20260830153034 71 244 2.0 9.0 0.00 0.00 0.00 80 1021.5
20260830152519 71 136 4.0 9.0 0.00 0.00 0.00 79 1021.6
20260830152018 70 306 4.0 8.0 0.00 0.00 0.00 80 1021.6
20260830151541 70 190 4.0 8.0 0.00 0.00 0.00 79 1021.5
20260830151020 70 186 4.0 8.0 0.00 0.00 0.00 80 1021.5
20260830150519 70 153 4.0 8.0 0.00 0.00 0.00 80 1021.3
20260830150034 70 152 3.0 9.0 0.00 0.00 0.00 80 1021.3
20260830145518 70 200 4.0 9.0 0.00 0.00 0.00 80 1021.3
20260830145017 69 222 3.0 9.0 0.00 0.00 0.00 80 1021.3
20260830144537 69 218 3.0 9.0 0.00 0.00 0.00 80 1021.2
20260830144018 69 184 5.0 9.0 0.00 0.00 0.00 79 1021.4
20260830143517 69 179 3.0 8.0 0.00 0.00 0.00 79 1021.2
20260830143041 69 186 3.0 11.0 0.00 0.00 0.00 80 1021.2
20260830142520 69 188 5.0 11.0 0.00 0.00 0.00 78 1021.4
20260830142019 69 150 3.0 8.0 0.00 0.00 0.00 79 1021.5
20260830141537 69 213 3.0 8.0 0.00 0.00 0.00 81 1021.6
20260830141018 68 200 3.0 8.0 0.00 0.00 0.00 81 1021.8
20260830140520 67 203 3.0 8.0 0.00 0.00 0.00 81 1021.9
20260830140044 67 175 4.0 10.0 0.00 0.00 0.00 80 1021.8
20260830135520 67 163 3.0 10.0 0.00 0.00 0.00 80 1021.9
20260830135017 67 194 2.0 6.0 0.00 0.00 0.00 80 1021.9
20260830134551 67 123 1.0 5.0 0.00 0.00 0.00 82 1021.8
20260830134017 66 159 3.0 5.0 0.00 0.00 0.00 81 1021.8
20260830133517 66 128 0.0 3.0 0.00 0.00 0.00 81 1021.9
20260830133041 66 0 0.0 3.0 0.00 0.00 0.00 80 1021.9
20260830132517 65 127 0.0 3.0 0.00 0.00 0.00 80 1022.0
20260830132020 65 0 0.0 1.0 0.00 0.00 0.00 79 1022.0
20260830131536 65 0 0.0 0.0 0.00 0.00 0.00 81 1022.1
20260830131020 64 0 0.0 0.0 0.00 0.00 0.00 79 1022.2
20260830130520 64 0 0.0 0.0 0.00 0.00 0.00 80 1022.1
20260830130054 64 0 0.0 0.0 0.00 0.00 0.00 83 1022.3
20260830125520 63 0 0.0 0.0 0.00 0.00 0.00 82 1022.3
20260830125016 63 0 0.0 0.0 0.00 0.00 0.00 85 1022.4
20260830124541 62 0 0.0 0.0 0.00 0.00 0.00 85 1022.2
20260830124018 62 0 0.0 0.0 0.00 0.00 0.00 87 1022.3
20260830123516 62 0 0.0 1.0 0.00 0.00 0.00 87 1022.2
20260830123046 62 0 0.0 1.0 0.00 0.00 0.00 89 1022.2
20260830122520 61 0 0.0 0.0 0.00 0.00 0.00 89 1022.3
20260830122020 61 0 0.0 0.0 0.00 0.00 0.00 88 1022.4
20260830121545 61 0 0.0 0.0 0.00 0.00 0.00 89 1022.5
20260830121017 60 0 0.0 0.0 0.00 0.00 0.00 90 1022.5
20260830120519 60 0 0.0 0.0 0.00 0.00 0.00 94 1022.5
20260830120037 59 0 0.0 0.0 0.00 0.00 0.00 94 1022.4
20260830115521 58 0 0.0 0.0 0.00 0.00 0.00 95 1022.6
20260830115020 57 0 0.0 0.0 0.00 0.00 0.00 95 1022.5
20260830114539 57 0 0.0 0.0 0.00 0.00 0.00 96 1022.6
20260830114018 56 0 0.0 0.0 0.00 0.00 0.00 96 1022.6
20260830113520 55 0 0.0 0.0 0.00 0.00 0.00 96 1022.7
20260830113036 55 0 0.0 0.0 0.00 0.00 0.00 96 1022.7
20260830112518 54 0 0.0 0.0 0.00 0.00 0.00 96 1022.8